Location: Mount Wilson Observatory
(34.2257°N, 118.0571°W)
Time: 07:16:29
(UTC-08:00)

ATLAS 3B CENTAUR R/B - Visible Passes

Search period start: 10 February 2016 00:00
Search period end: 20 February 2016 00:00
Orbit: 229 x 7006 km, 28.1° (Epoch: 10 February)

Date Brightness Start Highest point End Pass type
(mag) Time Alt. Az. Time Alt. Az. Time Alt. Az.
10 Feb 7.4 00:14:18 10° SW 00:23:10 11° SSW 00:33:05 10° SSW visible
10 Feb 5.4 18:53:24 10° W 19:02:51 42° SSW 19:29:00 10° SE visible
10 Feb 6.8 21:52:35 10° WSW 22:08:54 23° SSW 22:37:54 10° SSE visible
11 Feb 6.0 19:47:44 10° WSW 19:59:05 33° SSW 20:26:37 10° SE visible
11 Feb 7.1 22:53:48 10° SW 23:08:14 15° SSW 23:28:24 10° S visible
12 Feb 4.9 17:46:22 10° WSW 17:53:08 41° S 18:11:55 10° SE visible
12 Feb 6.5 20:42:44 10° WSW 20:55:42 25° SSW 21:22:09 10° SSE visible
13 Feb 5.5 18:39:19 10° WSW 18:47:35 34° SSW 19:08:33 10° SE visible
13 Feb 6.8 21:39:38 10° WSW 21:52:52 18° SSW 22:14:41 10° S visible
14 Feb 6.0 19:32:33 10° WSW 19:42:17 27° SSW 20:03:44 10° SSE visible
14 Feb 7.2 22:43:54 10° SW 22:51:03 11° SSW 22:59:31 10° SSW visible
15 Feb 6.5 20:26:46 10° WSW 20:37:20 20° SSW 20:56:46 10° SSE visible
16 Feb 5.5 18:21:36 10° WSW 18:28:34 26° S 18:44:10 10° SE visible
16 Feb 6.8 21:24:02 10° SW 21:33:03 13° SSW 21:45:53 10° S visible
17 Feb 6.1 19:13:52 10° SW 19:21:43 20° SSW 19:36:44 10° SSE visible
18 Feb 6.6 20:07:46 10° SW 20:15:13 14° SSW 20:26:41 10° S visible
19 Feb 5.6 18:00:21 10° SW 18:05:49 19° S 18:16:01 10° SSE visible
